Regional Weather Roundup
Issued by NWS Newport/Morehead, NC

Current Version | Previous Version | Text Only | Print | Product List | Glossary On
Versions: 1 2 3 4 5 6 7 8 9 10 11 12 13 14 15 16 17 18 19 20 21 22 23 24 25 26 27 28 29 30 31 32 33 34 35 36 37 38 39 40 41 42 43 44 45 46 47 48 49 50
152
ASUS42 KMHX 292213
RWRMHX
WEATHER ROUNDUP FOR EASTERN NORTH CAROLINA
NATIONAL WEATHER SERVICE NEWPORT/MOREHEAD CITY NC
600 PM EDT SAT APR 29 2017

NOTE: "FAIR" INDICATES FEW OR NO CLOUDS BELOW 12,000 FEET
WITH NO SIGNIFICANT WEATHER AND/OR OBSTRUCTIONS TO VISIBILITY

NCZ015>017-031-032-045>047-102-103-292300-
NORTH COAST

CITY           SKY/WX    TMP DP  RH WIND       PRES   REMARKS
EDENTON        SUNNY     87  72  59 SW10      30.13S
ELIZABETH CITY SUNNY     86  73  65 S9        30.12R
KITTY HAWK     CLEAR     82  71  70 S8        30.13R
MANTEO         SUNNY     80  72  76 SW17      30.15R

$$

NCZ045>047-081-094-103-104-292300-
CENTRAL COAST

CITY           SKY/WX    TMP DP  RH WIND       PRES   REMARKS
FRISCO         SUNNY     78  71  79 SW13G20   30.19F HAZE

$$

NCZ095-097-098-100-101-292300-
SOUTHERN COAST

CITY           SKY/WX    TMP DP  RH WIND       PRES   REMARKS
BEAUFORT       SUNNY     77  73  87 S14G24    30.19S
CEDAR ISLAND   NOT AVBL
JACKSONVILLE   SUNNY     81  72  74 S13G20    30.16S
PINEY ISLAND   CLEAR    N/A N/A N/A S16G24    30.18S
WILMINGTON     SUNNY     81  69  67 S13       30.18S


$$

NCZ011>013-027>030-043-044-078>080-089-090>093-098-292300-
COASTAL PLAIN

CITY           SKY/WX    TMP DP  RH WIND       PRES   REMARKS
AHOSKIE          N/A     85  71  64 SW3       30.12S
CLINTON        SUNNY     87  72  61 S3        30.15R
ELIZABETHTOWN  SUNNY     84  71  63 S8        30.16R
GOLDSBORO      PTSUNNY   88  69  51 SW6       30.12S
GREENVILLE     MOSUNNY   86  70  58 SW10      30.15S
HAVELOCK       NOT AVBL
KENANSVILLE    SUNNY     86  68  54 S3        30.15S
KINSTON        MOSUNNY   88  66  48 S8        30.15R
NEW BERN       SUNNY     83  72  69 SW14      30.17R
RICHLANDS      MOSUNNY   84  73  69 S13       30.16S
ROCKY MOUNT    MOSUNNY   86  72  62 SW8       30.13S
WASHINGTON     SUNNY     87  71  59 SW7       30.14S
WHITEVILLE     SUNNY     82  70  66 S12       30.16S

$$

AMZ130-135-150-152-154-156-158-170-250-252-270-ANZ085-086-088-633-658-670-292300-
MARINE OBSERVATIONS

STATION/POSITION TIME  TEMP    WIND        PRES    WAVE   SWELL
                       AIR SEA DIR/SP/G            HT/PER HT/PER
                 (UTC) (F)     (DEG/KT/KT) (MB)    (FT/S) (FT/S)
CHESAPEAKE LIGHT NOT AVBL
64 E VA BEACH    2150   64 58  210/ 16/ 19 1020.5    3/ 8   2/ 8
DUCK             2142   83 58  200/ 12/ 16 1019.7
2 E DUCK         2200      62                N/A     2/ 7
OREGON INLET     2148          190/ 20/ 24   N/A
13E OREGON INLT  2148      64                N/A     3/ 7   2/ 7
HATTERAS CG      2142   77 74  200/ 13/ 18 1022.0
DIAMOND BUOY     2150   77 76  210/ 16/ 19 1022.4    4/ 5   2/ 7
CAPE LOOKOUT     2200   76     200/ 10/ 13 1022.1
BEAUFORT LAB     2142   76 75  200/ 15/ 18 1021.4
30 SE NEW RVR IN NOT AVBL
30 SE NEW RVR IN 2143      73                N/A     4/ 6
27 SE WRIGHTSVLE 2108   75 74  190/ 12/ 16 1021.6
5 SE WRIGHTSVLE  2108   74 72  180/  8/ 12 1022.5
225 S CAPE HAT   2150   75 76  150/ 14/ 16 1024.4    3/ 8   2/ 8
41 SE CHARLESTON 2200   77 76  180/  8/ 10 1022.4

$$




USA.gov is the U.S. government's official web portal to all federal, state and local government web resources and services.